Location: Holyhead Bay
(53.3667°N, 4.6667°W)
Time: 19:32:39
(UTC+00:00)

Cosmos 2239 Rocket - Pass Details

Date: 24 November 2020
Orbit: 955 x 991 km, 82.9° (Epoch: 16 January)

Event Time Altitude Azimuth Distance (km) Brightness Sun altitude
Rises 19:11:44 0° 349° (N) 3,648 7.6 -26.3°
Reaches altitude 10° 19:14:15 10° 352° (N) 2,699 6.9 -26.7°
Enters shadow 19:19:56 68° 44° (NE) 1,030 4.4 -27.5°
